Regional Weather Roundup
Issued by NWS

Home | Current Version | Previous Version | Text Only | Print | Product List | Glossary On
Versions: 1 2 3 4 5 6 7 8 9 10 11 12 13 14 15 16 17 18 19 20 21 22 23 24 25 26 27 28 29 30 31 32 33 34 35 36 37 38 39 40 41 42 43 44 45 46 47 48 49 50
000
ASUS45 KBOU 240310
RWRCO

WEATHER ROUNDUP FOR COLORADO
NATIONAL WEATHER SERVICE DENVER/BOULDER CO
900 PM MDT THU MAY 23 2019

NOTE: "FAIR" INDICATES FEW OR NO CLOUDS BELOW 12000 FEET WITH NO
SIGNIFICANT WEATHER AND/OR OBSTRUCTIONS TO VISIBILITY.

COZ001>005-013-030-031-240400-
...NORTHWEST COLORADO...

CITY           SKY/WX    TMP DP  RH WIND       PRES   REMARKS
CRAIG          CLOUDY    40  34  79 SW10      29.95R
HAYDEN         CLOUDY    39  32  76 W9        29.97R
MEEKER         CLOUDY    40  32  73 W6        29.98R
RANGELY        CLOUDY    44  35  71 SW9       29.94R
RABBIT EARS PA NOT AVBL
STEAMBOAT SPGS CLOUDY    37  37  99 NE5       29.96R
WALDEN         MOCLDY    34  30  86 S9        29.96F WCI  26
$$

COZ006>008-011-240400-
...WEST CENTRAL VALLEYS...

CITY           SKY/WX    TMP DP  RH WIND       PRES   REMARKS
GRAND JUNCTION CLOUDY    47  38  71 N9        29.99R
MONTROSE       CLOUDY    49  25  39 SE6       30.06R
EAGLE          MOCLDY    41  30  65 W7        30.03R
RIFLE          CLOUDY    44  37  76 W3        29.99R
DELTA          CLOUDY    51  33  50 CALM      30.03R
NUCLA          FAIR      45  32  61 SE7       30.08R
$$

COZ017>023-064>068-240400-
...SOUTHWEST COLORADO...

CITY           SKY/WX    TMP DP  RH WIND       PRES   REMARKS
DURANGO        FAIR      41  27  57 CALM      30.11R
CORTEZ         FAIR      39  31  72 SE5       30.07R
PAGOSA SPRINGS FAIR      36  31  82 CALM      30.15R
TELLURIDE      FAIR      32  23  69 CALM      30.14R
WOLF CREEK PAS   N/A     19  19 100 SW18G28   30.23R WCI   4
$$

COZ009-010-012-014-032>034-037-058>063-240400-
...CENTRAL COLORADO...

CITY           SKY/WX    TMP DP  RH WIND       PRES   REMARKS
ASPEN          MOCLDY    36  30  79 VRB3      30.01R
BUENA VISTA    CLOUDY    40  25  55 W3        30.05R
COPPER MTN     SNOW      27  21  80 MISG      30.08R VSB 1/2
BERTHOUD PASS  CLOUDY    19  10  68 MISG      30.03S
COTTONWOOD PAS CLOUDY    32  25  74 SW3       30.06R
GUNNISON       FAIR      35  30  82 CALM      30.08R
GRANBY         CLOUDY    33  31  95 SE8       30.01S WCI  25
KREMMLING      FAIR      37  28  70 SW30G41   29.95F
LEADVILLE      LGT SNOW  25  24  96 SE6       30.05S FOG     WCI  18
SALIDA         FAIR      43  20  39 NW7       30.12R
SUNLIGHT       CLOUDY    23  21  93 SW23G38   30.05S WCI   7
WILKERSON PASS LGT SNOW  23  21  93 SW21G37   30.03F WCI   8
$$

COZ069>075-240400-
...SAN LUIS VALLEY/SANGRE DE CRISTO MOUNTAINS...

CITY           SKY/WX    TMP DP  RH WIND       PRES   REMARKS
ALAMOSA        FAIR      43  17  35 SW17      30.08R
DEL NORTE      FAIR      37  21  52 SW9G21    30.11R
LA VETA PASS   NOT AVBL
SAGUACHE       FAIR      37  21  52 CALM      30.08R
$$

COZ035-036-038>040-240400-
...NORTHERN COLORADO FRONT RANGE...

CITY           SKY/WX    TMP DP  RH WIND       PRES   REMARKS
DENVER INTL AP MOCLDY    44  41  89 SE9       29.95R
AURORA         MOCLDY    43  41  93 CALM      29.96R
FRONT RANGE AP CLOUDY    46  41  83 S8        29.96S
ERIE MUNI ARPT MOCLDY    42  39  90 CALM      30.01R
BOULDER MUN AP CLOUDY    41  41 100 CALM      29.96R
CENTENNIAL     MOCLDY    43  37  79 N3        29.95R
BROOMFIELD     NOT AVBL
FORT COLLINS   MOCLDY    42  39  89 SE6       29.96R
LONGMONT       FAIR      42  38  86 CALM      29.98R
$$

COZ041-046-047-076>085-087-088-240400-
...PIKES PEAK/PALMER DIVIDE AND SOUTHERN FOOTHILLS...

CITY           SKY/WX    TMP DP  RH WIND       PRES   REMARKS
COLO. SPRINGS  MOCLDY    41  37  86 SE9       30.00R
A. F. ACADEMY  CLOUDY    39  38  98 S14       29.97R
SCHRIEVER AFB  NOT AVBL
CHEYENNE MTN   NOT AVBL
ELLICOTT       NOT AVBL
FALCON         CLOUDY    38  37  96 S15G21    30.00R
FORT CARSON    CLOUDY    42  39  91 SW7       29.99R
LIMON          CLOUDY    41  41 100 SE10      29.98F
MONUMENT HILL  MOCLDY    34  32  93 SE16G22   29.97S WCI  23
CANON CITY     FAIR      41  39  93 SE3       29.98R
WALSENBURG     NOT AVBL
TRINIDAD       CLOUDY    45  44  97 E6        30.01R
$$

COZ042>045-048>051-090-091-240400-
...NORTHEAST COLORADO...

CITY           SKY/WX    TMP DP  RH WIND       PRES   REMARKS
GREELEY ARPT   CLOUDY    44  40  85 E6        29.95F
AKRON          CLOUDY    43  43 100 S7        29.98S FOG
BURLINGTON     CLOUDY    47  46  97 W6        29.99R FOG
WRAY           LGT RAIN  46  46 100 SE5       29.97S
YUMA           RAIN      43  43 100 SW5       29.98R
STERLING       LGT RAIN  45  45 100 S6        29.97R
HOLYOKE        DRIZZLE   46  45  93 SE6       29.96F
FORT MORGAN      N/A     44  40  86 SE6       29.97F
$$

COZ086-089-092>099-240400-
...SOUTHEAST COLORADO...

CITY           SKY/WX    TMP DP  RH WIND       PRES   REMARKS
PUEBLO         FAIR      46  42  86 SE8       29.98R
LA JUNTA       FAIR      45  42  89 CALM      29.99S
LAMAR          CLOUDY    49  47  93 NW8       29.97R
SPRINGFIELD      N/A     46  46 100 NW14G22   29.98R
$$



USA.gov is the U.S. government's official web portal to all federal, state and local government web resources and services.